Regional Weather Roundup
Issued by NWS Kansas City/Pleasant Hill, MO

Home | Current Version | Previous Version | Graphics & Text | Print | Product List | Glossary Off
Versions: 1 2 3 4 5 6 7 8 9 10 11 12 13 14 15 16 17 18 19 20 21 22 23 24 25 26 27 28 29 30 31 32 33 34 35 36 37 38 39 40 41 42 43 44 45 46 47 48 49 50

000
ASUS43 KEAX 141910
RWREAX

WEATHER ROUNDUP FOR EASTERN KANSAS AND NORTHWEST MISSOURI
NATIONAL WEATHER SERVICE KANSAS CITY/PLEASANT HILL MO
200 PM CDT SUN SEP 14 2014

KSZ040-057-103>105-MOZ028-029-037-043-142000-
...KANSAS CITY METROPOLITAN AREA...

CITY           SKY/WX    TMP DP  RH WIND       PRES   REMARKS
K.C. INTL      PTSUNNY   69  52  54 S7        30.19F
K.C. DOWNTOWN  PTSUNNY   72  53  51 VRB5      30.18F
LEES SUMMIT    CLOUDY    69  53  56 S7        30.20F
OLATHE - IXD   CLOUDY    69  55  60 S6G17     30.19F
OLATHE - OJC   CLOUDY    67  54  63 S8        30.18F
LAWRENCE       MOSUNNY   71  53  52 S9        30.18F

$$

MOZ001>008-011>017-020>025-030>033-038>040-044>046-053-054-142000-
...NORTHERN AND CENTRAL MISSOURI...

CITY           SKY/WX    TMP DP  RH WIND       PRES   REMARKS
ST. JOSEPH     SUNNY     72  50  45 SE10      30.18F
MOSBY          CLOUDY    70  50  49 S5        30.19F
WHITEMAN AFB   MOSUNNY   69  55  59 S6        30.20F
CLINTON        PTSUNNY   70  55  60 CALM      30.22F
SEDALIA        CLOUDY    69  53  56 S9        30.23F
WARSAW         NOT AVBL
MARSHALL       SUNNY     73  55  53 SW7       30.21F
CHILLICOTHE      N/A     69  48  47 VRB5      30.21F
MOBERLY        SUNNY     72  45  37 SW5       30.23F
KIRKSVILLE     SUNNY     67  47  48 VRB3      30.23F

$$

MOZ041-047>049-056>058-063>065-088>090-097-142000-
...EASTERN AND SOUTHERN MISSOURI...

CITY           SKY/WX    TMP DP  RH WIND       PRES   REMARKS
ST. LOUIS INTL MOSUNNY   70  45  40 W5        30.26F
SPIRIT OF STL  SUNNY     67  46  47 VRB3      30.24F
COLUMBIA       PTSUNNY   68  50  52 S7        30.24F
JEFFERSON CITY CLOUDY    69  47  45 S5        30.23F
MEXICO         SUNNY     72  54  53 SE5       30.24F
HANNIBAL       SUNNY     70  43  37 S7        30.24F
ROLLA          PTSUNNY   68  48  48 S5        30.23F
LEBANON        SUNNY     73  48  40 SE7       30.23F
OSAGE BEACH    CLOUDY    66  52  59 SE7       30.23F
SPRINGFIELD    CLOUDY    72  51  47 SE8       30.22F
BRANSON        MOSUNNY   73  50  43 E8        30.24F
JOPLIN         SUNNY     72  56  57 S8        30.21F
WEST PLAINS    SUNNY     70  47  43 S6        30.25F

$$

IAZ060-094-KSZ022-034>040-054-083-096-NEZ052-066-093-142000-
...KANSAS...SOUTHEAST NEBRASKA AND IOWA...

CITY           SKY/WX    TMP DP  RH WIND       PRES   REMARKS
TOPEKA         SUNNY     72  53  51 SE8       30.16F
MANHATTAN      SUNNY     74  52  46 S13G21    30.13F
EMPORIA        SUNNY     70  53  54 S12       30.16F
CHANUTE        SUNNY     71  54  54 S8        30.19F
WICHITA        MOSUNNY   75  54  47 S16G22    30.13F
OMAHA          PTSUNNY   69  49  48 S9        30.15F
LINCOLN        MOSUNNY   71  50  47 S12       30.15F
FALLS CITY     SUNNY     72  50  45 S12G17    30.16F
LAMONI         SUNNY     67  48  50 VRB7      30.21F
DES MOINES     MOSUNNY   68  48  48 SW10      30.19F

$$




USA.gov is the U.S. government's official web portal to all federal, state and local government web resources and services.